Location: Bowman Observatory
(41.0326°N, 73.6210°W)
Time: 04:13:53
(UTC-04:00)

Cosmos 2297 - Visible Passes

Search period start: 29 May 2015 00:00
Search period end: 08 June 2015 00:00
Orbit: 835 x 859 km, 71.0° (Epoch: 28 May)

Date Brightness Start Highest point End Pass type
(mag) Time Alt. Az. Time Alt. Az. Time Alt. Az.
29 May 5.5 21:46:13 10° N 21:50:13 20° NE 21:53:57 11° E visible
29 May 3.7 23:29:22 10° NNW 23:35:02 68° WSW 23:35:53 59° SSW visible
30 May 5.5 21:32:58 10° N 21:36:54 19° NE 21:40:59 10° E visible
30 May 3.7 23:16:04 10° NNW 23:21:44 70° WSW 23:22:55 54° S visible
31 May 5.5 21:19:42 10° N 21:23:35 19° NE 21:27:37 10° E visible
31 May 3.7 23:02:46 10° NNW 23:08:26 71° WSW 23:10:00 48° S visible
01 Jun 5.5 21:06:26 10° N 21:10:16 19° NE 21:14:15 10° E visible
01 Jun 3.7 22:49:27 10° NNW 22:55:08 73° WSW 22:57:06 42° S visible
02 Jun 5.5 20:53:10 10° N 20:56:57 18° NE 21:00:53 10° E visible
02 Jun 3.7 22:36:09 10° NNW 22:41:50 74° WSW 22:44:14 36° S visible
03 Jun 3.7 22:22:51 10° NNW 22:28:33 76° WSW 22:31:25 30° S visible
04 Jun 3.7 22:09:33 10° NNW 22:15:15 77° WSW 22:18:36 25° SSE visible
05 Jun 3.8 21:56:15 10° NNW 22:01:57 79° WSW 22:05:51 21° SSE visible
06 Jun 3.8 21:42:57 10° NNW 21:48:39 80° WSW 21:53:09 17° SSE visible
07 Jun 3.8 21:29:40 10° NNW 21:35:21 82° WSW 21:40:29 13° SSE visible
